DW6979 Svarstad NO current weather conditions

sailwx.info

Wind from 194

Air temperature 15.0° C
Dewpoint 12.7° C

Last reported at 2019-Jun-18 20:01 UTC.
Time now 2019-Jun-18 20:46 UTC

Location: N 59°26' E 010°00'.
View on Google Maps.

See reports from other nearby stations

  
Tides and Currents Weather Stations Pressure Air Temp Water Temp Dewpoint Dewpoint Depression Visibility Wind Speed Wind Dir Waves Ship Positions
date/time (UTC)wind fromknots sea level pressurealtimeterstation pressurevisibilityair tempwater tempwave heightnotes
2019-Jun-18 20:01 194 15.0
2019-Jun-18 19:47 194 15.6
2019-Jun-18 19:31 194 16.1
2019-Jun-18 19:16 228 16.7
2019-Jun-18 19:01 207 16.7
2019-Jun-18 18:46 239 17.2
2019-Jun-18 18:31 198 17.8
2019-Jun-18 18:16 191 2 gusting 7 17.8
2019-Jun-18 18:01 189 0 gusting 6 17.8
2019-Jun-18 17:46 196 3 gusting 8 17.8
2019-Jun-18 17:30 222 0 gusting 8 17.8
2019-Jun-18 17:16 171 6 gusting 10 17.2
2019-Jun-18 17:01 207 3 gusting 9 17.8
2019-Jun-18 16:46 198 2 gusting 8 18.3
2019-Jun-18 16:30 177 6 gusting 10 18.3
2019-Jun-18 16:16 227 3 gusting 8 18.3
2019-Jun-18 16:01 219 5 gusting 11 18.9
2019-Jun-18 15:46 166 6 gusting 11 18.9
2019-Jun-18 15:31 171 5 gusting 13 19.4
2019-Jun-18 15:15 195 5 gusting 10 19.4
2019-Jun-18 15:00 171 2 gusting 8 19.4
2019-Jun-18 14:45 198 2 gusting 10 18.9
2019-Jun-18 14:31 182 3 gusting 8 18.9
2019-Jun-18 14:15 211 4 gusting 8 18.9
2019-Jun-18 14:00 230 1 gusting 7 18.9
2019-Jun-18 13:46 191 4 gusting 8 18.9
2019-Jun-18 13:31 175 6 gusting 11 18.3
2019-Jun-18 13:16 208 5 gusting 8 18.3
2019-Jun-18 12:45 198 4 gusting 13 18.9
2019-Jun-18 12:31 184 5 gusting 12 18.9
2019-Jun-18 12:15 198 4 gusting 10 18.9
2019-Jun-18 12:00 171 2 gusting 7 19.4
2019-Jun-18 11:45 173 4 gusting 8 18.3
2019-Jun-18 11:30 148 3 gusting 10 18.3
2019-Jun-18 11:15 200 5 gusting 9 18.3
2019-Jun-18 11:00 206 4 gusting 9 18.9
2019-Jun-18 10:45 161 5 gusting 10 18.3
2019-Jun-18 10:30 194 4 gusting 12 18.3
2019-Jun-18 10:15 194 6 gusting 12 18.3
2019-Jun-18 10:00 221 1 gusting 7 17.8
2019-Jun-18 09:45 172 1 gusting 5 16.7
2019-Jun-18 09:31 182 16.1
2019-Jun-18 09:16 180 16.7
2019-Jun-18 09:03 180 15.6
2019-Jun-18 08:46 180 15.0
2019-Jun-18 08:31 180 14.4
2019-Jun-18 08:16 180 13.9
2019-Jun-18 08:01 180 13.9
2019-Jun-18 07:46 180 13.3
2019-Jun-18 07:30 180 13.3
2019-Jun-18 07:16 180 13.3
2019-Jun-18 07:01 180 13.3
2019-Jun-18 06:46 180 13.3
2019-Jun-18 06:31 180 12.8
2019-Jun-18 06:16 180 12.8
2019-Jun-18 06:01 180 12.8
2019-Jun-18 05:46 180 12.8
2019-Jun-18 05:31 180 12.8
2019-Jun-18 05:16 180 12.8
2019-Jun-18 05:01 180 12.8
2019-Jun-18 04:46 202 0 gusting 6 12.8
2019-Jun-18 04:30 193 2 gusting 5 12.2
2019-Jun-18 04:15 182 12.2
2019-Jun-18 04:00 188 12.2
2019-Jun-18 03:45 188 11.7
2019-Jun-18 03:31 187 11.7
2019-Jun-18 03:15 187 11.7
2019-Jun-18 03:01 187 11.1
2019-Jun-18 02:45 187 10.6
2019-Jun-18 02:30 187 10.6
2019-Jun-18 02:15 187 11.1
2019-Jun-18 02:00 187 11.1
2019-Jun-18 01:45 187 10.6
2019-Jun-18 01:30 187 11.1
2019-Jun-18 01:15 187 11.1
2019-Jun-18 01:00 187 11.7
2019-Jun-18 00:47 187 12.2
2019-Jun-18 00:33 187 12.2
2019-Jun-18 00:16 187 12.2
2019-Jun-18 00:02 187 12.2
2019-Jun-17 23:46 187 12.2
2019-Jun-17 23:32 187 12.8
2019-Jun-17 23:16 187 12.8
2019-Jun-17 23:01 165 1 gusting 4 12.8
2019-Jun-17 22:46 175 12.8
2019-Jun-17 22:32 196 0 gusting 6 13.3
2019-Jun-17 22:16 150 0 gusting 4 13.3
2019-Jun-17 22:01 186 1 gusting 5 13.3
2019-Jun-17 21:47 165 13.3
2019-Jun-17 21:31 196 0 gusting 5 13.9
2019-Jun-17 21:16 178 2 gusting 5 13.9
2019-Jun-17 21:02 198 1 gusting 6 13.9
2019-Jun-17 20:46 186 14.4
2019-Jun-17 20:31 167 2 gusting 5 14.4
2019-Jun-17 20:16 198 1 gusting 5 14.4
2019-Jun-17 20:01 186 1 gusting 4 14.4
2019-Jun-17 19:45 198 1 gusting 6 14.4
2019-Jun-17 19:31 155 1 gusting 5 15.0
2019-Jun-17 19:15 213 15.0
2019-Jun-17 19:01 178 2 gusting 5 15.0
2019-Jun-17 18:46 182 0 gusting 5 15.6
2019-Jun-17 18:31 187 3 gusting 7 15.6
2019-Jun-16 23:01 163 12.2
2019-Jun-16 22:46 182 12.2
2019-Jun-16 22:31 182 12.8
2019-Jun-16 22:16 202 0 gusting 4 12.8
2019-Jun-16 22:01 178 0 gusting 5 13.3
2019-Jun-16 21:45 187 13.3
2019-Jun-16 21:31 148 0 gusting 5 13.9
2019-Jun-16 21:16 208 13.9
2019-Jun-16 21:01 150 0 gusting 3 13.9
2019-Jun-16 20:45 217 14.4
2019-Jun-16 20:30 217 14.4
2019-Jun-16 20:16 217 14.4
2019-Jun-16 20:00 195 14.4